Regional Weather Roundup
Issued by NWS

Home | Current Version | Previous Version | Text Only | Print | Product List | Glossary Off
Versions: 1 2 3 4 5 6 7 8 9 10 11 12 13 14 15 16 17 18 19 20 21 22 23 24 25 26 27 28 29 30 31 32 33 34 35 36 37 38 39 40 41 42 43 44 45 46 47 48 49 50

000
ASUS43 KDTX 301510
RWRMI
MICHIGAN HOURLY REGIONAL WEATHER ROUNDUP
NATIONAL WEATHER SERVICE DETROIT/PONTIAC MI
1100 AM EDT SAT APR 30 2016

NOTE: "FAIR" INDICATES FEW OR NO CLOUDS BELOW 12,000 FEET WITH NO
SIGNIFICANT WEATHER AND/OR OBSTRUCTION TO VISIBILITY.

MIZ047>049-052>055-059>063-066>070-074>076-081>083-301600-
SOUTHEAST LOWER MICHIGAN

CITY           SKY/WX    TMP DP  RH WIND       PRES   REMARKS
ADRIAN         CLOUDY    51  38  60 E13       30.11F
ALMA           CLOUDY    50  34  54 NE12      30.15F
ANN ARBOR      CLOUDY    53  34  48 E13       30.12F
BAD AXE        CLOUDY    51  36  55 E6        30.17F
CARO           CLOUDY    53  35  49 E8        30.15F
DETROIT CITY   CLOUDY    50  36  58 E12       30.16S
DETROIT        CLOUDY    52  34  50 E12G17    30.14F
FLINT          MOSUNNY   57  33  40 E12       30.14F
GROSSE ILE     MOSUNNY   54  37  54 E7        30.13F
HILLSDALE      PTSUNNY   50  34  53 E14       30.09F
HOWELL         CLOUDY    53  29  39 E15       30.13S

CITY           SKY/WX    TMP DP  RH WIND       PRES   REMARKS
JACKSON        CLOUDY    52  33  48 E10       30.11F
LAMBERTVILLE   CLOUDY    53  37  55 E12       30.12F
LANSING        MOSUNNY   52  34  50 E12       30.13F
LAPEER         FAIR      53  32  44 E6        30.15F
MASON          CLOUDY    52  33  49 E10G17    30.12F
MONROE         MOSUNNY   51  38  60 E13G22    30.13F
MT. CLEMENS    CLOUDY    52  38  58 E9        30.14F
PONTIAC        CLOUDY    51  30  44 E13       30.13F
PORT HOPE        N/A     42  36  79 E6        30.18F
PORT HURON     MOSUNNY   54  37  54 SE9       30.16F
TRI CITIES     CLOUDY    53  33  46 NE12      30.16F
MIDLAND        FAIR      52  32  46 E14       30.16F
TROY           CLOUDY    52  32  45 E10       30.17R
SAGINAW HB     PTSUNNY   50  36  57 NE7       30.15F
$$
MIZ043>046-050>051-056>058-064>065-071>073-077>080-301600-
SOUTHWEST LOWER MICHIGAN

CITY           SKY/WX    TMP DP  RH WIND       PRES   REMARKS
BATTLE CREEK   CLOUDY    51  34  52 E14       30.10F
BENTON HARBOR  CLOUDY    50  38  63 SE8       30.08R
BIG RAPIDS     CLOUDY    50  28  43 E10G18    30.13F
COLDWATER      CLOUDY    50  35  54 E15G21    30.09F
FREMONT        FAIR      50  31  47 E10G16    30.13S
HOLLAND        PTSUNNY   50  37  61 E10G17    30.11F
GRAND RAPIDS   CLOUDY    50  33  52 E14       30.12F
IONIA          FAIR      49  33  54 E10       30.12F
KALAMAZOO      PTSUNNY   53  35  50 E13       30.09F
LUDINGTON      PTSUNNY   53  34  49 E14       30.14S
MARSHALL       CLOUDY    53  34  48 E12G17    30.09F
MOUNT PLEASANT MOSUNNY   52  31  44 E9        30.15F
MUSKEGON       CLOUDY    50  35  56 E12       30.12F
SOUTH HAVEN    PTSUNNY   50  40  66 E9        30.08S
$$
MIZ016>042-301600-
NORTHERN LOWER MICHIGAN

CITY           SKY/WX    TMP DP  RH WIND       PRES   REMARKS
ALPENA         SUNNY     53  29  39 E9        30.21F
BEAVER ISLAND  SUNNY     50  30  46 NE7       30.20F
BELLAIRE       CLOUDY    55  27  34 E8        30.17F
CADILLAC       CLOUDY    51  30  44 E10       30.14F
CHARLEVOIX     SUNNY     52  28  40 E8        30.21F
FRANKFORT      CLOUDY    54  36  50 E8        30.15F
GAYLORD        CLOUDY    51  25  36 VRB6      30.17F
GRAYLING       CLOUDY    52  27  37 E5        30.17F
HARBOR SPRINGS SUNNY     54  28  36 E9        30.18F
HOUGHTON LAKE  CLOUDY    52  26  36 E9        30.16F
MANISTEE       PTSUNNY   54  32  43 E9        30.15F
OSCODA         MOSUNNY   52  29  42 NE5       30.19F
PELLSTON       SUNNY     53  26  35 SE9       30.20F
ROGERS CITY    SUNNY     47  31  53 NE6       30.22S
TRAVERSE CITY  CLOUDY    53  30  41 N6        30.15F
$$
MIZ007>008-015-301600-
EASTERN UPPER MICHIGAN

CITY           SKY/WX    TMP DP  RH WIND       PRES   REMARKS
KINROSS          N/A     52  28  40 CALM      30.21F
MACKINAC ISLAN SUNNY     46  31  55 E8        30.21F
NEWBERRY       SUNNY     52  32  45 CALM      30.19F
S. S. MARIE    CLOUDY    51  31  46 CALM      30.20F
MUNISING         N/A     41  36  82 NE12      30.23S
$$
MIZ004>006-011>014-085-301600-
CENTRAL UPPER MICHIGAN

CITY           SKY/WX    TMP DP  RH WIND       PRES   REMARKS
MANISTIQUE     MOSUNNY   54  33  45 E5        30.19F
ESCANABA       MOSUNNY   52  34  50 N12G17    30.19F
MENOMINEE      CLOUDY    46  34  61 E15G22    30.18S
SAWYER-GWINN   SUNNY     45  32  61 NE13      30.24S
$$
MIZ001>003-009>011-084-301600-
WESTERN UPPER MICHIGAN

CITY           SKY/WX    TMP DP  RH WIND       PRES   REMARKS
IRON MOUNTAIN  CLOUDY    52  32  46 E7        30.18F
HOUGHTON       PTSUNNY   46  33  60 E14G20    30.25S
COPPER HARBOR    N/A     40  36  86 NE12      30.29R WCI  33
IRONWOOD         N/A     48  32  53 E12G20    30.20S
$$

ABBREVIATIONS USED IN REMARKS
   TC - TEMPERATURE IN CELSIUS
  WCI - WIND CHILL INDEX
   HX - HEAT INDEX
  VSB - VISIBILITY





USA.gov is the U.S. government's official web portal to all federal, state and local government web resources and services.